This is the latest recevied weather packets stored in our database for station/object KF0JHJ. If no packets are shown the sender has not sent any weather packets the latest 10 day(s).
| Time | Temp. | Humidity | Pressure | Rain* | Wind** | Luminosity | Snow |
|---|---|---|---|---|---|---|---|
| 1778029484 | 7.78° C | 49% | 1009.6 hPa | - | - | 6 W/m² | - |
| 1778029179 | 7.78° C | 48% | 1009.3 hPa | - | - | 9 W/m² | - |
| 1778028877 | 7.78° C | 48% | 1009.4 hPa | - | - | 16 W/m² | - |
| 1778028572 | 7.78° C | 48% | 1009.3 hPa | - | - | 18 W/m² | - |
| 1778028271 | 7.78° C | 47% | 1009 hPa | - | - | 17 W/m² | - |
| 1778027966 | 8.33° C | 47% | 1009.2 hPa | - | - | 24 W/m² | - |
| 1778027663 | 8.33° C | 48% | 1009.2 hPa | - | - | 22 W/m² | - |
| 1778027360 | 8.33° C | 48% | 1009.3 hPa | - | - | 24 W/m² | - |
| 1778027056 | 8.33° C | 46% | 1009.2 hPa | - | - | 17 W/m² | - |
| 1778026751 | 8.33° C | 47% | 1009.1 hPa | - | - | 18 W/m² | - |
| 1778026448 | 8.33° C | 47% | 1009.1 hPa | - | - | 22 W/m² | - |
| 1778026146 | 8.89° C | 46% | 1009.2 hPa | - | - | 26 W/m² | - |
| 1778025843 | 8.89° C | 46% | 1009.1 hPa | - | - | 31 W/m² | - |
| 1778025539 | 8.89° C | 46% | 1008.9 hPa | - | - | 38 W/m² | - |
| 1778025238 | 8.89° C | 46% | 1008.9 hPa | - | - | 50 W/m² | - |
| 1778024934 | 8.89° C | 45% | 1008.9 hPa | - | - | 44 W/m² | - |
| 1778024632 | 9.44° C | 45% | 1008.9 hPa | - | - | 59 W/m² | - |
| 1778024328 | 8.89° C | 44% | 1008.6 hPa | - | - | 72 W/m² | - |
| 1778024026 | 9.44° C | 45% | 1008.9 hPa | - | - | 73 W/m² | - |
| 1778023724 | 9.44° C | 45% | 1008.6 hPa | - | - | 69 W/m² | - |
| 1778023421 | 9.44° C | 44% | 1008.7 hPa | - | - | 76 W/m² | - |
| 1778023118 | 8.89° C | 43% | 1008.8 hPa | - | - | 73 W/m² | - |
| 1778022815 | 9.44° C | 43% | 1008.5 hPa | - | - | 73 W/m² | - |
| 1778022513 | 9.44° C | 44% | 1008.6 hPa | - | - | 60 W/m² | - |
| 1778022210 | 9.44° C | 44% | 1008.6 hPa | - | - | 77 W/m² | - |
* Rain since midnight (hover to see other rain measurements)
** Current wind speed in m/s (hover to see current wind gust speed)